{"data":{"norad_id":58766,"intl_designator":"2024-011B","name":"STARLINK-31114","alt_names":[],"object_type":"PAYLOAD","status":"ACTIVE","operator":null,"country":"US","launch_date":"2024-01-14","launch_site_code":"AFWTR","launch_vehicle":null,"mission":null,"orbit_class":"UNKNOWN","rcs_meters":null,"size_class":null,"mass_kg":null,"dimensions":null,"purposes":["comms"],"wikipedia_slug":null,"has_3d_model":false,"image_url":null,"decayed_at":null,"tle_current":{"epoch":"2026-09-20T04:13:27.141312Z","epoch_age_seconds":180526,"freshness":"STALE","line1":"1 58766U 24011B   26263.17600858 -.00001070  00000+0 -20553-4 0  9992","line2":"2 58766  53.1637 187.0208 0000473 147.8196 212.2836 15.34384079150087","mean_motion":15.34384079,"eccentricity":4.73e-5,"inclination_deg":53.1637,"raan_deg":187.0208,"arg_perigee_deg":147.8196,"mean_anomaly_deg":212.2836,"bstar":-2.0553e-5,"rev_number":15008,"period_min":93.848731859789,"perigee_km":462.42698720183,"apogee_km":463.07413516512,"semimajor_km":6840.8875611835,"source":"CELESTRAK","updated_at":"2026-09-21T09:00:33.956828Z"}}}